Location: Sherrills_Ford_Terrell
(35.6000°N, 80.9830°W)
Time: 17:11:14
(UTC-04:00)

ISS - Visible Passes

Search period start: 27 July 2016 00:00
Search period end: 06 August 2016 00:00
Orbit: 401 x 404 km, 51.6° (Epoch: 27 July)

Date Brightness Start Highest point End Pass type
(mag) Time Alt. Az. Time Alt. Az. Time Alt. Az.
27 Jul -0.4 03:58:53 10° NNW 04:01:13 18° NNE 04:03:33 10° ENE visible
27 Jul -3.1 05:34:40 10° WNW 05:37:49 46° SW 05:40:57 10° SSE visible
27 Jul -1.4 22:12:04 10° W 22:15:01 31° NW 22:17:58 10° NNE visible
28 Jul 0.2 03:08:09 12° NNE 03:08:09 12° NNE 03:09:16 10° NE visible
28 Jul -3.3 04:41:41 10° NW 04:44:56 76° NE 04:48:11 10° SE visible
28 Jul -2.8 21:18:48 10° WSW 21:22:01 64° NW 21:25:15 10° NE visible
28 Jul 0.2 22:58:11 10° NW 22:59:00 11° NNW 22:59:48 10° N visible
29 Jul -1.2 05:29:47 13° SSW 05:29:47 13° SSW 05:30:24 10° S visible
29 Jul -0.2 22:03:38 10° WNW 22:05:46 16° NNW 22:07:55 10° NNE visible
30 Jul -0.9 21:09:50 10° W 21:12:39 26° NW 21:15:29 10° NNE visible
01 Aug -0.2 21:01:32 10° WNW 21:03:25 14° NNW 21:05:18 10° N visible
